Youngstown, OH

5:00 PM EST on December 15, 2019 (GMT -0500)
Youngstown-Warren Regional

Weather History for KYNG - September, 2019

Change the Weather History Date:

Tuesday, September 17, 2019

  Actual Average Record
Temperature  
Mean Temperature 68 °F 62 °F  
Max Temperature 79 °F 72 °F 95 °F (1939)
Min Temperature 58 °F 51 °F 30 °F (1959)
Degree Days  
Heating Degree Days 0 5  
Month to date heating degree days 10 52  
Since 1 July heating degree days 16 90  
Cooling Degree Days 4 1  
Month to date cooling degree days 62 39  
Year to date cooling degree days 726 525  
Growing Degree Days 18 (Base 50)    
Moisture  
Dew Point 59 °F    
Average Humidity 78    
Maximum Humidity 96    
Minimum Humidity 47    
Precipitation  
Precipitation 0.00 in 0.13 in 2.17 in (1976)
Month to date precipitation 4.30 2.16  
Year to date precipitation 38.82 28.38  
Snow  
Snow 0.00 in 0.00 in - ()
Month to date snowfall 0.0 0.0  
Since 1 July snowfall 0.0 0.0  
Since 1 September snowfall 0.0 0.0  
Snow Depth 0.00 in    
Sea Level Pressure  
Sea Level Pressure 30.14 in    
Wind  
Wind Speed 7 mph ()    
Max Wind Speed 12 mph    
Max Gust Speed 16 mph    
Visibility 6.8 miles    
Events Fog    
T = Trace of Precipitation, MM = Missing Value Source: Averaged Metar Reports

Daily Weather History Graph

Daily Weather History Graph

Search for Another Location

Airport or City:

Astronomy

Sep. 17, 2019 Rise Set
Actual Time 7:04 AM EDT 7:28 PM EDT
Civil Twilight 6:37 AM EDT 7:56 PM EDT
Nautical Twilight 6:04 AM EDT 8:28 PM EDT
Astronomical Twilight 5:31 AM EDT 9:02 PM EDT
Moon 9:29 PM EDT (9/17) 10:09 AM EDT (9/17)
Length of Visible Light 13h 19m
Length of Day
12h 23m
Waning Gibbous, 89% of the Moon is Illuminated
Sep 17
Waning Gibbous
Sep 21
Last Quarter
Sep 28
New
Oct 5
First Quarter
Oct 13
Full

Hourly Weather History & Observations

Time (EDT) Temp. Dew Point Humidity Pressure Visibility Wind Dir Wind Speed Gust Speed Precip Events Conditions
12:51 AM 63.0 °F 60.1 °F 90% 30.10 in 8.0 mi NE 8.1 mph - N/A   Partly Cloudy
1:28 AM 62.1 °F 60.1 °F 93% 30.12 in 6.0 mi NNE 5.8 mph - N/A   Mostly Cloudy
1:51 AM 62.1 °F 60.1 °F 93% 30.11 in 5.0 mi NNE 10.4 mph - N/A   Mostly Cloudy
1:59 AM 63.0 °F 60.1 °F 90% 30.12 in 2.0 mi NNE 10.4 mph - N/A   Overcast
2:39 AM 62.1 °F 60.1 °F 93% 30.12 in 0.5 mi NE 8.1 mph - N/A Fog Fog
2:51 AM 62.1 °F 61.0 °F 96% 30.10 in 0.2 mi NE 9.2 mph - N/A Fog Fog
3:27 AM 63.0 °F 61.0 °F 93% 30.11 in 0.5 mi NNE 6.9 mph - N/A Fog Fog
3:51 AM 63.0 °F 61.0 °F 93% 30.09 in 0.5 mi NE 9.2 mph - N/A Fog Fog
4:51 AM 63.0 °F 61.0 °F 93% 30.10 in 0.8 mi NE 5.8 mph - N/A   Overcast
5:26 AM 63.0 °F 61.0 °F 93% 30.13 in 1.5 mi NE 8.1 mph - N/A   Overcast
5:51 AM 63.0 °F 61.0 °F 93% 30.12 in 1.5 mi NE 5.8 mph - N/A   Overcast
6:26 AM 63.0 °F 61.0 °F 93% 30.14 in 5.0 mi ENE 5.8 mph - N/A   Overcast
6:51 AM 63.0 °F 60.1 °F 90% 30.13 in 5.0 mi NE 5.8 mph - N/A   Overcast
6:54 AM 63.0 °F 60.1 °F 90% 30.14 in 2.5 mi NE 6.9 mph - N/A   Overcast
7:44 AM 63.0 °F 60.1 °F 90% 30.16 in 6.0 mi ENE 6.9 mph - N/A   Overcast
7:51 AM 63.0 °F 60.1 °F 90% 30.15 in 6.0 mi ENE 6.9 mph - N/A   Overcast
8:51 AM 64.0 °F 60.1 °F 87% 30.17 in 10.0 mi NE 5.8 mph - N/A   Overcast
10:51 AM 68.0 °F 59.0 °F 73% 30.18 in 10.0 mi ENE 5.8 mph - N/A   Mostly Cloudy
11:11 AM 70.0 °F 60.1 °F 71% 30.20 in 10.0 mi Calm Calm - N/A   Mostly Cloudy
11:51 AM 73.0 °F 60.1 °F 64% 30.18 in 10.0 mi North 5.8 mph - N/A   Mostly Cloudy
12:51 PM 75.0 °F 61.0 °F 62% 30.17 in 10.0 mi NNE 5.8 mph - N/A   Mostly Cloudy
1:42 PM 75.9 °F 59.0 °F 56% 30.17 in 10.0 mi NE 8.1 mph - N/A   Mostly Cloudy
1:51 PM 75.0 °F 59.0 °F 57% 30.15 in 10.0 mi NNE 6.9 mph - N/A   Mostly Cloudy
2:16 PM 75.9 °F 59.0 °F 56% 30.17 in 10.0 mi NE 8.1 mph - N/A   Mostly Cloudy
2:51 PM 77.0 °F 57.9 °F 52% 30.15 in 10.0 mi Variable 5.8 mph - N/A   Mostly Cloudy
3:51 PM 78.1 °F 57.0 °F 48% 30.13 in 10.0 mi ENE 8.1 mph - N/A   Mostly Cloudy
4:51 PM 77.0 °F 57.0 °F 50% 30.13 in 10.0 mi NNE 10.4 mph - N/A   Mostly Cloudy
5:51 PM 77.0 °F 55.9 °F 48% 30.13 in 10.0 mi NNE 6.9 mph - N/A   Scattered Clouds
6:51 PM 73.0 °F 55.9 °F 55% 30.13 in 10.0 mi North 9.2 mph - N/A   Partly Cloudy
7:51 PM 66.9 °F 55.9 °F 68% 30.14 in 10.0 mi NNE 9.2 mph - N/A   Partly Cloudy
8:51 PM 63.0 °F 55.9 °F 78% 30.15 in 10.0 mi NE 8.1 mph - N/A   Partly Cloudy
9:51 PM 62.1 °F 55.9 °F 80% 30.17 in 10.0 mi NE 9.2 mph - N/A   Partly Cloudy
10:51 PM 61.0 °F 55.0 °F 81% 30.17 in 10.0 mi ENE 6.9 mph - N/A   Partly Cloudy
11:51 PM 60.1 °F 54.0 °F 80% 30.17 in 10.0 mi ENE 8.1 mph - N/A   Clear